| time (UTC) | temp F | wind direction | speed MPH | gust MPH | rain 1hr in | rain 24hr in | rain mn in | humidity % | barometer mb |
| 20260906203055 | 105 | 44 | 1.0 | 8.0 | 0.00 | 0.00 | 0.00 | 31 | 1007.2 |
| 20260906201553 | 105 | 26 | 1.0 | 5.0 | 0.00 | 0.00 | 0.00 | 31 | 1007.2 |
| 20260906200048 | 104 | 340 | 0.0 | 4.0 | 0.00 | 0.00 | 0.00 | 31 | 1007.5 |
| 20260906194601 | 104 | 266 | 0.0 | 7.0 | 0.00 | 0.00 | 0.00 | 31 | 1007.7 |
| 20260906193044 | 104 | 167 | 1.0 | 6.0 | 0.00 | 0.00 | 0.00 | 31 | 1008.0 |
| 20260906191543 | 103 | 318 | 0.0 | 5.0 | 0.00 | 0.00 | 0.00 | 34 | 1008.2 |
| 20260906190040 | 104 | 167 | 1.0 | 6.0 | 0.00 | 0.00 | 0.00 | 33 | 1008.4 |
| 20260906184540 | 104 | 231 | 1.0 | 8.0 | 0.00 | 0.00 | 0.00 | 33 | 1008.6 |
| 20260906183056 | 103 | 281 | 1.0 | 7.0 | 0.00 | 0.00 | 0.00 | 34 | 1008.8 |
| 20260906181542 | 104 | 360 | 0.0 | 5.0 | 0.00 | 0.00 | 0.00 | 34 | 1009.0 |
| 20260906180047 | 102 | 309 | 1.0 | 4.0 | 0.00 | 0.00 | 0.00 | 36 | 1009.2 |
| 20260906174532 | 102 | 352 | 0.0 | 7.0 | 0.00 | 0.00 | 0.00 | 36 | 1009.5 |
| 20260906173032 | 102 | 194 | 2.0 | 6.0 | 0.00 | 0.00 | 0.00 | 37 | 1009.7 |
| 20260906171528 | 101 | 278 | 0.0 | 2.0 | 0.00 | 0.00 | 0.00 | 38 | 1010.0 |
| 20260906170025 | 100 | 145 | 0.0 | 2.0 | 0.00 | 0.00 | 0.00 | 39 | 1010.3 |
| 20260906164523 | 99 | 246 | 0.0 | 3.0 | 0.00 | 0.00 | 0.00 | 40 | 1010.5 |
| 20260906163021 | 98 | 113 | 1.0 | 4.0 | 0.00 | 0.00 | 0.00 | 41 | 1010.6 |
| 20260906161535 | 96 | 100 | 0.0 | 3.0 | 0.00 | 0.00 | 0.00 | 43 | 1010.5 |
| 20260906160012 | 95 | 255 | 1.0 | 4.0 | 0.00 | 0.00 | 0.00 | 46 | 1010.5 |
| 20260906154508 | 93 | 135 | 1.0 | 4.0 | 0.00 | 0.00 | 0.00 | 48 | 1010.5 |
| 20260906153006 | 91 | 238 | 0.0 | 3.0 | 0.00 | 0.00 | 0.00 | 51 | 1010.4 |
| 20260906151502 | 90 | 284 | 0.0 | 4.0 | 0.00 | 0.00 | 0.00 | 51 | 1010.3 |
| 20260906150107 | 89 | 256 | 0.0 | 3.0 | 0.00 | 0.00 | 0.00 | 53 | 1010.4 |
| 20260906144554 | 88 | 205 | 0.0 | 3.0 | 0.00 | 0.00 | 0.00 | 55 | 1010.3 |
| 20260906143051 | 86 | 271 | 1.0 | 4.0 | 0.00 | 0.00 | 0.00 | 57 | 1010.3 |
| 20260906141603 | 86 | 205 | 1.0 | 5.0 | 0.00 | 0.00 | 0.00 | 57 | 1010.2 |
| 20260906140047 | 85 | 203 | 1.0 | 4.0 | 0.00 | 0.00 | 0.00 | 58 | 1010.1 |
| 20260906134548 | 84 | 317 | 1.0 | 5.0 | 0.00 | 0.00 | 0.00 | 60 | 1010.0 |
| 20260906133051 | 82 | 243 | 0.0 | 2.0 | 0.00 | 0.00 | 0.00 | 62 | 1009.9 |
| 20260906131559 | 81 | 163 | 0.0 | 3.0 | 0.00 | 0.00 | 0.00 | 64 | 1009.8 |
| 20260906130053 | 80 | 146 | 0.0 | 2.0 | 0.00 | 0.00 | 0.00 | 64 | 1009.7 |
| 20260906124543 | 80 | 235 | 0.0 | 3.0 | 0.00 | 0.00 | 0.00 | 65 | 1009.6 |
| 20260906123041 | 79 | 152 | 0.0 | 2.0 | 0.00 | 0.00 | 0.00 | 65 | 1009.4 |
| 20260906121540 | 79 | 169 | 0.0 | 2.0 | 0.00 | 0.00 | 0.00 | 65 | 1009.2 |
| 20260906120035 | 79 | 210 | 0.0 | 2.0 | 0.00 | 0.00 | 0.00 | 65 | 1009.1 |
| 20260906114541 | 79 | 217 | 0.0 | 2.0 | 0.00 | 0.00 | 0.00 | 64 | 1008.9 |
| 20260906111531 | 79 | 190 | 0.0 | 2.0 | 0.00 | 0.00 | 0.00 | 64 | 1008.6 |
| 20260906110026 | 80 | 144 | 0.0 | 1.0 | 0.00 | 0.00 | 0.00 | 62 | 1008.5 |
| 20260906104526 | 80 | 149 | 0.0 | 2.0 | 0.00 | 0.00 | 0.00 | 62 | 1008.4 |
| 20260906103024 | 80 | 180 | 0.0 | 1.0 | 0.00 | 0.00 | 0.00 | 61 | 1008.4 |
| 20260906101529 | 80 | 146 | 0.0 | 2.0 | 0.00 | 0.00 | 0.00 | 61 | 1008.3 |
| 20260906100031 | 80 | 221 | 0.0 | 2.0 | 0.00 | 0.00 | 0.00 | 61 | 1008.3 |
| 20260906094522 | 80 | 169 | 0.0 | 1.0 | 0.00 | 0.00 | 0.00 | 61 | 1008.3 |
| 20260906093018 | 81 | 169 | 0.0 | 0.0 | 0.00 | 0.00 | 0.00 | 59 | 1008.2 |
| 20260906091517 | 81 | 169 | 0.0 | 0.0 | 0.00 | 0.00 | 0.00 | 58 | 1008.3 |
| 20260906090015 | 82 | 169 | 0.0 | 1.0 | 0.00 | 0.00 | 0.00 | 58 | 1008.2 |
| 20260906084514 | 82 | 191 | 0.0 | 1.0 | 0.00 | 0.00 | 0.00 | 58 | 1008.2 |
| 20260906083013 | 82 | 124 | 0.0 | 1.0 | 0.00 | 0.00 | 0.00 | 57 | 1008.1 |
| 20260906081514 | 82 | 124 | 0.0 | 1.0 | 0.00 | 0.00 | 0.00 | 57 | 1008.1 |
| 20260906080011 | 82 | 124 | 0.0 | 1.0 | 0.00 | 0.00 | 0.00 | 56 | 1008.1 |
| 20260906074508 | 83 | 124 | 0.0 | 1.0 | 0.00 | 0.00 | 0.00 | 56 | 1008.1 |
| 20260906073007 | 83 | 120 | 0.0 | 1.0 | 0.00 | 0.00 | 0.00 | 55 | 1008.1 |
| 20260906071506 | 84 | 163 | 0.0 | 1.0 | 0.00 | 0.00 | 0.00 | 55 | 1008.1 |
| 20260906070003 | 84 | 228 | 0.0 | 2.0 | 0.00 | 0.00 | 0.00 | 54 | 1008.1 |
| 20260906064504 | 84 | 204 | 0.0 | 2.0 | 0.00 | 0.00 | 0.00 | 54 | 1008.1 |
| 20260906063002 | 84 | 224 | 0.0 | 1.0 | 0.00 | 0.00 | 0.00 | 54 | 1008.1 |
| 20260906061601 | 84 | 215 | 0.0 | 1.0 | 0.00 | 0.00 | 0.00 | 53 | 1008.1 |
| 20260906061502 | 84 | 215 | 0.0 | 1.0 | 0.00 | 0.00 | 0.00 | 53 | 1008.1 |
| 20260906060133 | 85 | 215 | 0.0 | 1.0 | 0.00 | 0.00 | 0.00 | 53 | 1008.1 |
| 20260906054607 | 85 | 215 | 0.0 | 1.0 | 0.00 | 0.00 | 0.00 | 51 | 1008.1 |
| 20260906053053 | 86 | 203 | 0.0 | 2.0 | 0.00 | 0.00 | 0.00 | 51 | 1008.0 |
| 20260906051550 | 86 | 224 | 0.0 | 2.0 | 0.00 | 0.00 | 0.00 | 50 | 1007.8 |
| 20260906050047 | 87 | 218 | 0.0 | 2.0 | 0.00 | 0.00 | 0.00 | 49 | 1007.8 |
| 20260906044546 | 87 | 162 | 1.0 | 4.0 | 0.00 | 0.00 | 0.00 | 49 | 1007.7 |
| 20260906043050 | 87 | 229 | 0.0 | 3.0 | 0.00 | 0.00 | 0.00 | 49 | 1007.8 |
| 20260906041546 | 88 | 229 | 0.0 | 2.0 | 0.00 | 0.00 | 0.00 | 48 | 1007.8 |
| 20260906040045 | 88 | 184 | 1.0 | 2.0 | 0.00 | 0.00 | 0.00 | 47 | 1007.9 |
| 20260906034558 | 89 | 160 | 0.0 | 3.0 | 0.00 | 0.00 | 0.00 | 47 | 1007.9 |
| 20260906033045 | 89 | 226 | 0.0 | 1.0 | 0.00 | 0.00 | 0.00 | 47 | 1007.8 |
| 20260906031543 | 89 | 226 | 0.0 | 2.0 | 0.00 | 0.00 | 0.00 | 46 | 1007.7 |
| 20260906030044 | 90 | 232 | 0.0 | 1.0 | 0.00 | 0.00 | 0.00 | 46 | 1007.8 |
| 20260906024541 | 90 | 232 | 0.0 | 2.0 | 0.00 | 0.00 | 0.00 | 45 | 1007.6 |
| 20260906023042 | 90 | 233 | 0.0 | 2.0 | 0.00 | 0.00 | 0.00 | 46 | 1007.5 |
| 20260906021544 | 90 | 243 | 0.0 | 1.0 | 0.00 | 0.00 | 0.00 | 46 | 1007.3 |
| 20260906020041 | 90 | 243 | 0.0 | 2.0 | 0.00 | 0.00 | 0.00 | 46 | 1007.1 |
| 20260906014548 | 91 | 243 | 0.0 | 1.0 | 0.00 | 0.00 | 0.00 | 44 | 1007.0 |
| 20260906013040 | 92 | 245 | 0.0 | 1.0 | 0.00 | 0.00 | 0.00 | 43 | 1006.8 |
| 20260906011540 | 93 | 134 | 0.0 | 3.0 | 0.00 | 0.00 | 0.00 | 41 | 1006.6 |
| 20260906010050 | 94 | 146 | 0.0 | 4.0 | 0.00 | 0.00 | 0.00 | 40 | 1006.5 |
| 20260906004549 | 95 | 139 | 0.0 | 3.0 | 0.00 | 0.00 | 0.00 | 39 | 1006.4 |
| 20260906003040 | 96 | 131 | 0.0 | 4.0 | 0.00 | 0.00 | 0.00 | 38 | 1006.3 |
| 20260906001554 | 98 | 146 | 1.0 | 5.0 | 0.00 | 0.00 | 0.00 | 36 | 1006.2 |
| 20260906000037 | 98 | 264 | 0.0 | 4.0 | 0.00 | 0.00 | 0.00 | 36 | 1006.2 |
| 20260905234538 | 98 | 129 | 0.0 | 8.0 | 0.00 | 0.00 | 0.00 | 36 | 1006.0 |
| 20260905233036 | 99 | 136 | 0.0 | 4.0 | 0.00 | 0.00 | 0.00 | 35 | 1005.9 |
| 20260905231536 | 101 | 219 | 0.0 | 4.0 | 0.00 | 0.00 | 0.00 | 33 | 1005.8 |
| 20260905230038 | 102 | 143 | 1.0 | 6.0 | 0.00 | 0.00 | 0.00 | 33 | 1005.9 |
| 20260905224535 | 103 | 149 | 0.0 | 3.0 | 0.00 | 0.00 | 0.00 | 32 | 1005.8 |
| 20260905223046 | 102 | 142 | 0.0 | 3.0 | 0.00 | 0.00 | 0.00 | 33 | 1005.8 |
| 20260905221534 | 102 | 307 | 3.0 | 7.0 | 0.00 | 0.00 | 0.00 | 33 | 1005.7 |
| 20260905220031 | 102 | 156 | 2.0 | 6.0 | 0.00 | 0.00 | 0.00 | 33 | 1005.9 |
| 20260905214529 | 102 | 150 | 3.0 | 7.0 | 0.00 | 0.00 | 0.00 | 33 | 1006.0 |
| 20260905213027 | 101 | 167 | 0.0 | 7.0 | 0.00 | 0.00 | 0.00 | 34 | 1006.2 |
| 20260905211525 | 102 | 233 | 2.0 | 6.0 | 0.00 | 0.00 | 0.00 | 33 | 1006.5 |
| 20260905210032 | 102 | 231 | 0.0 | 6.0 | 0.00 | 0.00 | 0.00 | 34 | 1006.6 |
| 20260905204520 | 101 | 126 | 2.0 | 7.0 | 0.00 | 0.00 | 0.00 | 34 | 1006.9 |